Change the Weather History Date:

Sunday, October 16, 2011

  Actual Average Record
Temperature  
Mean Temperature 50 °F -  
Max Temperature 57 °F 57 °F 83 °F (1953)
Min Temperature 44 °F 34 °F 19 °F (1952)
Degree Days  
Heating Degree Days 14    
Moisture  
Dew Point 33 °F    
Average Humidity 54    
Maximum Humidity 81    
Minimum Humidity 26    
Precipitation  
Precipitation 0.00 in - - ()
Sea Level Pressure  
Sea Level Pressure 29.78 in    
Wind  
Wind Speed 8 mph (West)    
Max Wind Speed 23 mph    
Max Gust Speed 34 mph    
Visibility 10 miles    
Events      
Averages and records for this station are not official NWS values.
T = Trace of Precipitation, MM = Missing Value Source: NWS Daily Summary

Daily Weather History Graph

Daily Weather History Graph

Search for Another Location

Airport or City:

Trip Planner

Search our weather history database for the weather conditions in past years. The results will help you decide how hot, cold, wet, or windy it might be!

Date:

Astronomy

Oct. 16, 2011 Rise Set
Actual Time 7:14 AM CDT 6:14 PM CDT
Civil Twilight 6:45 AM CDT 6:43 PM CDT
Nautical Twilight 6:11 AM CDT 7:16 PM CDT
Astronomical Twilight 5:38 AM CDT 7:49 PM CDT
Moon 8:52 PM CDT (10/16) 11:39 AM CDT (10/16)
Length of Visible Light 11h 58m
Length of Day
11h 00m
Waning Gibbous, 82% of the Moon is Illuminated
Oct 16
Waning Gibbous
Oct 19
Last Quarter
Oct 26
New
Nov 2
First Quarter
Nov 10
Full

Hourly Weather History & Observations

Time (CDT) Temp. Windchill Dew Point Humidity Pressure Visibility Wind Dir Wind Speed Gust Speed Precip Events Conditions
12:35 AM 50.0 °F - 35.6 °F 58% 29.80 in 10.0 mi SW 5.8 mph - N/A   Overcast
12:55 AM 48.2 °F - 37.4 °F 66% 29.82 in 10.0 mi SW 4.6 mph - N/A   Overcast
1:15 AM 48.2 °F - 37.4 °F 66% 29.82 in 10.0 mi Calm Calm - N/A   Overcast
1:35 AM 46.4 °F 45.2 °F 37.4 °F 71% 29.81 in 10.0 mi WSW 3.5 mph - N/A   Overcast
1:55 AM 46.4 °F 44.3 °F 37.4 °F 71% 29.80 in 10.0 mi SSW 4.6 mph - N/A   Overcast
2:15 AM 46.4 °F 44.3 °F 37.4 °F 71% 29.81 in 10.0 mi WSW 4.6 mph - N/A   Overcast
2:35 AM 46.4 °F 45.2 °F 37.4 °F 71% 29.79 in 10.0 mi SSW 3.5 mph - N/A   Overcast
2:55 AM 46.4 °F 44.3 °F 37.4 °F 71% 29.80 in 10.0 mi SW 4.6 mph - N/A   Overcast
3:15 AM 46.4 °F 45.2 °F 37.4 °F 71% 29.80 in 10.0 mi WSW 3.5 mph - N/A   Overcast
3:55 AM 46.4 °F 45.2 °F 39.2 °F 76% 29.79 in 10.0 mi SW 3.5 mph - N/A   Overcast
4:15 AM 46.4 °F 45.2 °F 39.2 °F 76% 29.80 in 10.0 mi SW 3.5 mph - N/A   Overcast
4:35 AM 46.4 °F - 39.2 °F 76% 29.79 in 10.0 mi Calm Calm - N/A   Overcast
4:55 AM 46.4 °F 44.3 °F 41.0 °F 81% 29.78 in 10.0 mi SSW 4.6 mph - N/A   Overcast
5:15 AM 46.4 °F 45.2 °F 39.2 °F 76% 29.78 in 10.0 mi WSW 3.5 mph - N/A   Overcast
5:35 AM 46.4 °F 45.2 °F 39.2 °F 76% 29.78 in 10.0 mi WSW 3.5 mph - N/A   Overcast
5:55 AM 46.4 °F 44.3 °F 39.2 °F 76% 29.78 in 10.0 mi SW 4.6 mph - N/A   Overcast
6:35 AM 46.4 °F 45.2 °F 39.2 °F 76% 29.78 in 10.0 mi WSW 3.5 mph - N/A   Overcast
6:55 AM 46.4 °F 45.2 °F 39.2 °F 76% 29.78 in 10.0 mi WSW 3.5 mph - N/A   Overcast
7:15 AM 46.4 °F 45.2 °F 37.4 °F 71% 29.77 in 10.0 mi West 3.5 mph - N/A   Overcast
7:35 AM 44.6 °F 42.2 °F 37.4 °F 76% 29.78 in 10.0 mi West 4.6 mph - N/A   Mostly Cloudy
7:55 AM 44.6 °F 41.4 °F 37.4 °F 76% 29.78 in 10.0 mi West 5.8 mph - N/A   Clear
8:15 AM 46.4 °F 43.5 °F 37.4 °F 71% 29.79 in 10.0 mi West 5.8 mph - N/A   Clear
8:35 AM 46.4 °F 42.9 °F 37.4 °F 71% 29.80 in 10.0 mi West 6.9 mph - N/A   Clear
8:55 AM 48.2 °F - 37.4 °F 66% 29.80 in 10.0 mi West 8.1 mph - N/A   Clear
9:15 AM 48.2 °F - 37.4 °F 66% 29.80 in 10.0 mi WNW 9.2 mph 16.1 mph N/A   Clear
9:35 AM 50.0 °F - 37.4 °F 62% 29.80 in 10.0 mi WNW 9.2 mph 16.1 mph N/A   Clear
9:55 AM 50.0 °F - 37.4 °F 62% 29.81 in 10.0 mi WNW 11.5 mph 18.4 mph N/A   Clear
10:15 AM 51.8 °F - 37.4 °F 58% 29.81 in 10.0 mi WNW 13.8 mph 20.7 mph N/A   Clear
10:35 AM 51.8 °F - 37.4 °F 58% 29.80 in 10.0 mi WNW 10.4 mph 20.7 mph N/A   Clear
10:55 AM 53.6 °F - 35.6 °F 51% 29.80 in 10.0 mi West 13.8 mph 18.4 mph N/A   Scattered Clouds
11:15 AM 53.6 °F - 35.6 °F 51% 29.80 in 10.0 mi West 9.2 mph - N/A   Mostly Cloudy
11:35 AM 53.6 °F - 33.8 °F 47% 29.80 in 10.0 mi West 12.7 mph 20.7 mph N/A   Scattered Clouds
11:55 AM 55.4 °F - 32.0 °F 41% 29.80 in 10.0 mi WNW 12.7 mph 17.3 mph N/A   Scattered Clouds
12:15 PM 55.4 °F - 32.0 °F 41% 29.79 in 10.0 mi WNW 18.4 mph 25.3 mph N/A   Mostly Cloudy
12:35 PM 55.4 °F - 32.0 °F 41% 29.78 in 10.0 mi West 18.4 mph 26.5 mph N/A   Mostly Cloudy
12:55 PM 57.2 °F - 32.0 °F 38% 29.77 in 10.0 mi WNW 17.3 mph 24.2 mph N/A   Scattered Clouds
1:15 PM 57.2 °F - 32.0 °F 38% 29.77 in 10.0 mi NW 11.5 mph 23.0 mph N/A   Mostly Cloudy
1:35 PM 55.4 °F - 30.2 °F 38% 29.77 in 10.0 mi West 23.0 mph 34.5 mph N/A   Mostly Cloudy
1:55 PM 57.2 °F - 30.2 °F 36% 29.77 in 10.0 mi WNW 18.4 mph 26.5 mph N/A   Mostly Cloudy
2:15 PM 55.4 °F - 30.2 °F 38% 29.76 in 10.0 mi NW 18.4 mph 25.3 mph N/A   Mostly Cloudy
2:35 PM 55.4 °F - 30.2 °F 38% 29.76 in 10.0 mi WNW 15.0 mph 28.8 mph N/A   Mostly Cloudy
2:55 PM 55.4 °F - 30.2 °F 38% 29.76 in 10.0 mi West 12.7 mph 23.0 mph N/A   Scattered Clouds
3:15 PM 57.2 °F - 28.4 °F 33% 29.76 in 10.0 mi West 21.9 mph 28.8 mph N/A   Mostly Cloudy
3:35 PM 57.2 °F - 26.6 °F 31% 29.76 in 10.0 mi West 21.9 mph 29.9 mph N/A   Scattered Clouds
3:55 PM 57.2 °F - 24.8 °F 29% 29.77 in 10.0 mi West 13.8 mph 27.6 mph N/A   Clear
4:15 PM 55.4 °F - 26.6 °F 33% 29.77 in 10.0 mi West 19.6 mph 32.2 mph N/A   Clear
4:35 PM 55.4 °F - 24.8 °F 31% 29.76 in 10.0 mi WNW 15.0 mph 28.8 mph N/A   Clear
4:55 PM 55.4 °F - 21.2 °F 26% 29.76 in 10.0 mi West 17.3 mph 28.8 mph N/A   Clear
5:15 PM 55.4 °F - 24.8 °F 31% 29.76 in 10.0 mi West 16.1 mph 21.9 mph N/A   Clear
5:35 PM 53.6 °F - 24.8 °F 33% 29.76 in 10.0 mi West 12.7 mph 25.3 mph N/A   Clear
5:55 PM 53.6 °F - 24.8 °F 33% 29.76 in 10.0 mi West 16.1 mph 23.0 mph N/A   Clear
6:15 PM 51.8 °F - 26.6 °F 38% 29.76 in 10.0 mi West 12.7 mph 17.3 mph N/A   Clear
6:35 PM 51.8 °F - 26.6 °F 38% 29.76 in 10.0 mi West 11.5 mph 16.1 mph N/A   Clear
7:15 PM 51.8 °F - 28.4 °F 41% 29.77 in 10.0 mi West 12.7 mph 20.7 mph N/A   Clear
7:35 PM 50.0 °F - 28.4 °F 43% 29.77 in 10.0 mi West 13.8 mph 20.7 mph N/A   Clear
7:55 PM 50.0 °F - 28.4 °F 43% 29.77 in 10.0 mi West 15.0 mph 19.6 mph N/A   Clear
8:15 PM 50.0 °F - 28.4 °F 43% 29.77 in 10.0 mi West 12.7 mph 19.6 mph N/A   Clear
8:35 PM 50.0 °F - 28.4 °F 43% 29.77 in 10.0 mi West 15.0 mph 20.7 mph N/A   Clear
8:55 PM 50.0 °F - 28.4 °F 43% 29.78 in 10.0 mi West 13.8 mph 21.9 mph N/A   Clear
9:15 PM 50.0 °F - 28.4 °F 43% 29.79 in 10.0 mi West 12.7 mph 19.6 mph N/A   Clear
9:35 PM 50.0 °F - 28.4 °F 43% 29.80 in 10.0 mi West 13.8 mph 20.7 mph N/A   Clear
9:55 PM 50.0 °F - 28.4 °F 43% 29.80 in 10.0 mi West 10.4 mph 18.4 mph N/A   Clear
10:15 PM 48.2 °F - 28.4 °F 46% 29.80 in 10.0 mi West 16.1 mph 23.0 mph N/A   Clear
10:35 PM 48.2 °F - 28.4 °F 46% 29.80 in 10.0 mi West 15.0 mph 23.0 mph N/A   Clear
10:55 PM 48.2 °F - 28.4 °F 46% 29.81 in 10.0 mi WNW 12.7 mph 19.6 mph N/A   Clear
11:15 PM 46.4 °F 40.1 °F 28.4 °F 50% 29.81 in 10.0 mi West 15.0 mph 24.2 mph N/A   Clear
11:35 PM 46.4 °F 40.7 °F 28.4 °F 50% 29.81 in 10.0 mi West 12.7 mph 20.7 mph N/A   Clear
11:55 PM 46.4 °F 41.5 °F 28.4 °F 50% 29.81 in 10.0 mi West 10.4 mph 20.7 mph N/A   Clear